QPF
0.00 0.00 0.00 0.00 0.00 0.00 0.00 0.00 0.00 0.01 0.01 0.02 0.02 0.01 0.02 0.02 0.02 0.02 0.02 0.03 0.03 0.03 0.03 0.04 0.04 0.03 0.03 0.03 0.03 0.02 0.02 0.02 0.02 0.01 0.02 0.03 0.03 0.03 0.05 0.07 0.07 0.07 0.06 0.03
0.00 0.00 0.00 0.00 0.00 0.00 0.00 0.00 0.00 0.01 0.01 0.02 0.02 0.02 0.01 0.02 0.03 0.02 0.02 0.02 0.03 0.03 0.04 0.06 0.05 0.06 0.05 0.03 0.03 0.03 0.02 0.02 0.02 0.01 0.02 0.02 0.03 0.05 0.07 0.09 0.08 0.08 0.07 0.04
0.00 0.00 0.00 0.00 0.00 0.00 0.00 0.00 0.01 0.01 0.01 0.01 0.01 0.01 0.01 0.01 0.02 0.03 0.03 0.02 0.02 0.04 0.05 0.06 0.07 0.08 0.08 0.05 0.05 0.05 0.04 0.03 0.02 0.02 0.02 0.03 0.08 0.13 0.12 0.10 0.09 0.07 0.06 0.04
0.01 0.01 0.01 0.01 0.00 0.00 0.00 0.01 0.02 0.01 0.02 0.02 0.02 0.02 0.02 0.02 0.03 0.02 0.02 0.01 0.01 0.01 0.01 0.01 0.03 0.04 0.08 0.06 0.04 0.05 0.05 0.04 0.03 0.03 0.03 0.03 0.05 0.09 0.12 0.11 0.09 0.06 0.05 0.04
0.01 0.00 0.00 0.01 0.01 0.01 0.01 0.02 0.01 0.01 0.02 0.03 0.03 0.05 0.07 0.07 0.06 0.03 0.01 0.01 0.01 0.01 0.01 0.01 0.02 0.03 0.07 0.10 0.06 0.05 0.06 0.06 0.05 0.05 0.06 0.07 0.05 0.06 0.08 0.10 0.10 0.08 0.07 0.06
0.01 0.01 0.01 0.01 0.01 0.01 0.02 0.04 0.03 0.03 0.03 0.03 0.03 0.07 0.08 0.06 0.04 0.02 0.02 0.02 0.01 0.01 0.02 0.01 0.02 0.02 0.05 0.10 0.12 0.12 0.13 0.13 0.14 0.14 0.14 0.14 0.13 0.12 0.12 0.14 0.15 0.12 0.09 0.07
0.01 0.01 0.03 0.02 0.01 0.01 0.03 0.06 0.04 0.04 0.03 0.03 0.03 0.04 0.05 0.05 0.05 0.03 0.03 0.02 0.02 0.02 0.02 0.03 0.03 0.03 0.05 0.07 0.10 0.11 0.12 0.14 0.15 0.17 0.18 0.16 0.14 0.13 0.11 0.10 0.10 0.09 0.07 0.05
0.02 0.03 0.05 0.03 0.02 0.03 0.05 0.06 0.07 0.05 0.04 0.03 0.03 0.03 0.04 0.05 0.07 0.07 0.07 0.05 0.04 0.02 0.02 0.03 0.03 0.04 0.05 0.07 0.09 0.11 0.12 0.13 0.14 0.15 0.15 0.12 0.11 0.12 0.11 0.09 0.07 0.06 0.05 0.04
0.05 0.06 0.06 0.06 0.06 0.05 0.05 0.07 0.07 0.08 0.07 0.07 0.06 0.06 0.06 0.07 0.07 0.10 0.10 0.07 0.05 0.03 0.02 0.02 0.03 0.04 0.06 0.07 0.08 0.10 0.11 0.12 0.13 0.14 0.16 0.15 0.11 0.09 0.08 0.08 0.08 0.06 0.05 0.06
0.03 0.04 0.04 0.04 0.04 0.05 0.07 0.09 0.09 0.09 0.09 0.07 0.06 0.06 0.05 0.04 0.03 0.02 0.02 0.02 0.03 0.04 0.03 0.03 0.04 0.06 0.09 0.10 0.12 0.14 0.14 0.11 0.08 0.07 0.08 0.09 0.08 0.06 0.05 0.05 0.05 0.04 0.03 0.04
0.04 0.03 0.03 0.03 0.03 0.05 0.07 0.08 0.07 0.06 0.04 0.03 0.02 0.01 0.01 0.01 0.01 0.01 0.01 0.01 0.02 0.05 0.06 0.04 0.05 0.09 0.12 0.13 0.13 0.12 0.09 0.06 0.04 0.03 0.05 0.06 0.05 0.04 0.03 0.02 0.02 0.02 0.01 0.01
0.03 0.03 0.04 0.04 0.04 0.04 0.03 0.03 0.03 0.03 0.02 0.02 0.01 0.01 0.01 0.01 0.01 0.01 0.01 0.01 0.01 0.02 0.02 0.02 0.03 0.07 0.11 0.11 0.10 0.08 0.05 0.04 0.02 0.02 0.03 0.04 0.04 0.03 0.03 0.02 0.02 0.01 0.01 0.01
0.01 0.01 0.01 0.02 0.02 0.04 0.04 0.02 0.01 0.01 0.01 0.01 0.01 0.01 0.01 0.01 0.01 0.01 0.01 0.02 0.03 0.03 0.03 0.02 0.02 0.03 0.04 0.06 0.08 0.08 0.06 0.05 0.03 0.02 0.02 0.02 0.03 0.03 0.02 0.02 0.02 0.01 0.02 0.02
0.01 0.01 0.01 0.01 0.02 0.04 0.05 0.03 0.02 0.02 0.01 0.01 0.01 0.02 0.02 0.03 0.03 0.02 0.02 0.01 0.02 0.04 0.03 0.03 0.03 0.03 0.04 0.05 0.06 0.06 0.07 0.07 0.06 0.04 0.04 0.03 0.02 0.01 0.02 0.02 0.02 0.02 0.03 0.03
0.02 0.01 0.01 0.02 0.05 0.06 0.06 0.04 0.03 0.03 0.02 0.01 0.01 0.03 0.05 0.07 0.06 0.04 0.03 0.02 0.01 0.02 0.03 0.05 0.05 0.05 0.06 0.07 0.06 0.04 0.04 0.05 0.05 0.05 0.05 0.05 0.03 0.01 0.02 0.02 0.02 0.02 0.03 0.03
0.02 0.01 0.01 0.02 0.04 0.05 0.05 0.03 0.03 0.03 0.02 0.02 0.02 0.03 0.06 0.08 0.06 0.03 0.02 0.02 0.01 0.02 0.04 0.07 0.06 0.06 0.07 0.07 0.06 0.05 0.04 0.04 0.04 0.04 0.05 0.05 0.04 0.03 0.03 0.04 0.03 0.03 0.03 0.02
0.02 0.03 0.04 0.04 0.03 0.03 0.03 0.02 0.02 0.02 0.01 0.02 0.02 0.02 0.02 0.02 0.03 0.02 0.02 0.01 0.01 0.02 0.02 0.03 0.04 0.06 0.06 0.07 0.07 0.06 0.04 0.03 0.04 0.05 0.05 0.06 0.06 0.06 0.06 0.05 0.05 0.05 0.04 0.04
0.02 0.03 0.04 0.04 0.03 0.02 0.01 0.01 0.01 0.01 0.02 0.02 0.02 0.02 0.02 0.01 0.02 0.02 0.02 0.02 0.02 0.02 0.02 0.02 0.03 0.04 0.04 0.04 0.04 0.04 0.03 0.02 0.02 0.04 0.05 0.05 0.04 0.04 0.05 0.05 0.05 0.05 0.06 0.06
0.01 0.01 0.01 0.03 0.03 0.03 0.02 0.02 0.01 0.01 0.02 0.02 0.03 0.03 0.03 0.02 0.02 0.02 0.02 0.02 0.02 0.01 0.01 0.02 0.03 0.03 0.03 0.03 0.02 0.02 0.02 0.02 0.03 0.04 0.03 0.03 0.03 0.02 0.03 0.04 0.06 0.07 0.07 0.06
0.01 0.01 0.01 0.01 0.01 0.01 0.01 0.01 0.01 0.01 0.01 0.01 0.02 0.02 0.03 0.03 0.04 0.04 0.04 0.03 0.02 0.02 0.02 0.03 0.03 0.03 0.04 0.04 0.05 0.04 0.04 0.04 0.05 0.05 0.04 0.03 0.03 0.03 0.03 0.03 0.03 0.04 0.04 0.04
0.02 0.01 0.01 0.00 0.00 0.00 0.01 0.01 0.01 0.01 0.01 0.01 0.01 0.01 0.01 0.02 0.02 0.04 0.03 0.02 0.01 0.02 0.02 0.03 0.03 0.04 0.04 0.06 0.06 0.06 0.06 0.06 0.06 0.05 0.04 0.04 0.04 0.03 0.03 0.03 0.02 0.02 0.02 0.03
0.01 0.01 0.00 0.00 0.00 0.00 0.01 0.01 0.01 0.01 0.01 0.00 0.01 0.01 0.01 0.01 0.03 0.03 0.02 0.01 0.01 0.02 0.03 0.03 0.03 0.03 0.04 0.06 0.06 0.07 0.07 0.05 0.05 0.04 0.04 0.03 0.03 0.03 0.03 0.02 0.02 0.02 0.02 0.03
0.01 0.00 0.00 0.00 0.01 0.01 0.01 0.01 0.02 0.01 0.01 0.01 0.01 0.01 0.01 0.02 0.02 0.03 0.03 0.02 0.02 0.02 0.03 0.03 0.03 0.04 0.04 0.03 0.03 0.05 0.06 0.06 0.06 0.05 0.04 0.04 0.04 0.04 0.04 0.03 0.03 0.03 0.03 0.03
0.01 0.01 0.01 0.01 0.01 0.01 0.01 0.01 0.02 0.01 0.01 0.01 0.01 0.01 0.02 0.03 0.04 0.04 0.04 0.04 0.03 0.03 0.02 0.03 0.03 0.04 0.05 0.03 0.03 0.04 0.05 0.05 0.06 0.05 0.04 0.04 0.04 0.04 0.04 0.04 0.03 0.03 0.03 0.02
0.01 0.01 0.01 0.01 0.02 0.02 0.02 0.02 0.01 0.01 0.01 0.01 0.01 0.01 0.01 0.02 0.02 0.02 0.02 0.03 0.03 0.03 0.03 0.03 0.03 0.04 0.04 0.03 0.03 0.04 0.05 0.05 0.05 0.04 0.03 0.03 0.03 0.03 0.03 0.03 0.03 0.02 0.02 0.02
0.02 0.01 0.01 0.02 0.02 0.02 0.02 0.02 0.01 0.01 0.01 0.01 0.01 0.01 0.01 0.01 0.01 0.01 0.02 0.03 0.02 0.03 0.03 0.03 0.04 0.05 0.04 0.03 0.04 0.05 0.05 0.03 0.03 0.02 0.03 0.03 0.03 0.03 0.03 0.03 0.02 0.02 0.02 0.01
0.02 0.01 0.01 0.02 0.02 0.02 0.02 0.02 0.02 0.02 0.02 0.01 0.02 0.02 0.01 0.01 0.01 0.01 0.02 0.03 0.03 0.03 0.04 0.04 0.04 0.05 0.05 0.06 0.06 0.06 0.04 0.03 0.02 0.03 0.03 0.03 0.02 0.02 0.02 0.02 0.01 0.01 0.01 0.01
MSLP
1010.89 1011.24 1011.59 1011.91 1012.16 1012.29 1012.26 1012.06 1011.69 1011.18 1010.58 1009.96 1009.39 1008.92 1008.60 1008.41 1008.35 1008.36 1008.39 1008.38 1008.29 1008.11 1007.86 1007.57 1007.29 1007.08 1006.96 1006.97 1007.10 1007.30 1007.54 1007.76 1007.93 1008.02 1008.02 1007.98 1007.93 1007.93 1008.03 1008.28 1008.69 1009.27 1009.98 1010.79
1011.50 1011.81 1012.07 1012.26 1012.35 1012.32 1012.16 1011.87 1011.46 1010.98 1010.46 1009.96 1009.53 1009.19 1008.96 1008.83 1008.77 1008.73 1008.69 1008.59 1008.44 1008.22 1007.97 1007.73 1007.54 1007.44 1007.44 1007.56 1007.75 1007.98 1008.21 1008.37 1008.44 1008.41 1008.29 1008.12 1007.96 1007.87 1007.91 1008.11 1008.49 1009.04 1009.75 1010.55
1012.01 1012.28 1012.47 1012.57 1012.56 1012.45 1012.22 1011.89 1011.49 1011.06 1010.62 1010.22 1009.88 1009.61 1009.42 1009.28 1009.17 1009.05 1008.90 1008.70 1008.47 1008.21 1007.97 1007.77 1007.67 1007.68 1007.79 1008.01 1008.27 1008.54 1008.76 1008.89 1008.89 1008.78 1008.57 1008.33 1008.09 1007.95 1007.94 1008.12 1008.48 1009.02 1009.71 1010.49
1012.38 1012.60 1012.74 1012.79 1012.74 1012.59 1012.34 1012.03 1011.67 1011.29 1010.92 1010.58 1010.30 1010.05 1009.85 1009.66 1009.47 1009.24 1008.98 1008.69 1008.37 1008.08 1007.84 1007.69 1007.66 1007.76 1007.97 1008.26 1008.59 1008.89 1009.12 1009.23 1009.21 1009.06 1008.82 1008.54 1008.29 1008.13 1008.13 1008.30 1008.66 1009.19 1009.86 1010.61
1012.60 1012.76 1012.85 1012.87 1012.80 1012.65 1012.42 1012.14 1011.83 1011.50 1011.19 1010.89 1010.63 1010.38 1010.14 1009.89 1009.61 1009.28 1008.93 1008.55 1008.18 1007.86 1007.62 1007.51 1007.53 1007.69 1007.97 1008.32 1008.69 1009.02 1009.26 1009.37 1009.36 1009.21 1008.99 1008.73 1008.52 1008.40 1008.43 1008.62 1008.99 1009.52 1010.16 1010.88
1012.64 1012.73 1012.77 1012.77 1012.69 1012.56 1012.36 1012.12 1011.85 1011.57 1011.29 1011.02 1010.76 1010.49 1010.21 1009.90 1009.55 1009.16 1008.74 1008.31 1007.91 1007.58 1007.35 1007.26 1007.31 1007.51 1007.81 1008.19 1008.58 1008.92 1009.18 1009.32 1009.33 1009.24 1009.08 1008.89 1008.76 1008.71 1008.80 1009.04 1009.44 1009.96 1010.58 1011.25
1012.53 1012.54 1012.53 1012.49 1012.42 1012.29 1012.13 1011.92 1011.69 1011.44 1011.18 1010.91 1010.64 1010.36 1010.05 1009.70 1009.31 1008.89 1008.45 1008.00 1007.60 1007.28 1007.06 1006.98 1007.04 1007.24 1007.54 1007.91 1008.29 1008.64 1008.91 1009.09 1009.16 1009.15 1009.08 1009.01 1008.99 1009.05 1009.22 1009.52 1009.93 1010.45 1011.04 1011.66
1012.28 1012.21 1012.16 1012.09 1012.01 1011.89 1011.74 1011.55 1011.34 1011.10 1010.85 1010.58 1010.30 1010.01 1009.68 1009.33 1008.94 1008.53 1008.09 1007.68 1007.30 1006.99 1006.78 1006.70 1006.75 1006.91 1007.18 1007.51 1007.87 1008.20 1008.49 1008.71 1008.86 1008.95 1009.01 1009.08 1009.19 1009.36 1009.63 1009.99 1010.43 1010.95 1011.50 1012.07
1011.95 1011.82 1011.72 1011.63 1011.54 1011.42 1011.28 1011.10 1010.88 1010.64 1010.39 1010.11 1009.83 1009.53 1009.21 1008.88 1008.51 1008.13 1007.74 1007.36 1007.02 1006.73 1006.53 1006.43 1006.43 1006.55 1006.75 1007.02 1007.33 1007.65 1007.95 1008.22 1008.46 1008.67 1008.87 1009.08 1009.33 1009.63 1009.99 1010.41 1010.89 1011.40 1011.92 1012.44
1011.57 1011.40 1011.28 1011.18 1011.08 1010.97 1010.82 1010.64 1010.42 1010.17 1009.90 1009.62 1009.33 1009.04 1008.74 1008.43 1008.11 1007.77 1007.44 1007.10 1006.79 1006.51 1006.29 1006.15 1006.10 1006.14 1006.26 1006.45 1006.71 1007.00 1007.31 1007.63 1007.96 1008.29 1008.63 1009.00 1009.39 1009.81 1010.27 1010.75 1011.25 1011.77 1012.27 1012.75
1011.18 1011.01 1010.89 1010.79 1010.69 1010.58 1010.43 1010.25 1010.02 1009.77 1009.49 1009.20 1008.91 1008.63 1008.35 1008.07 1007.79 1007.50 1007.20 1006.90 1006.60 1006.32 1006.07 1005.88 1005.74 1005.69 1005.71 1005.82 1006.01 1006.28 1006.60 1006.97 1007.38 1007.83 1008.31 1008.82 1009.34 1009.88 1010.43 1010.97 1011.51 1012.03 1012.52 1012.98
1010.81 1010.66 1010.55 1010.47 1010.40 1010.29 1010.16 1009.98 1009.75 1009.49 1009.21 1008.92 1008.63 1008.36 1008.09 1007.84 1007.58 1007.33 1007.05 1006.76 1006.46 1006.15 1005.85 1005.58 1005.36 1005.21 1005.13 1005.16 1005.29 1005.52 1005.85 1006.26 1006.76 1007.31 1007.91 1008.54 1009.18 1009.83 1010.46 1011.06 1011.63 1012.17 1012.66 1013.12
1010.46 1010.34 1010.27 1010.22 1010.17 1010.09 1009.97 1009.80 1009.59 1009.33 1009.06 1008.77 1008.49 1008.22 1007.97 1007.73 1007.49 1007.24 1006.97 1006.67 1006.35 1006.00 1005.64 1005.29 1004.98 1004.73 1004.57 1004.52 1004.59 1004.79 1005.12 1005.57 1006.12 1006.76 1007.45 1008.18 1008.93 1009.66 1010.36 1011.01 1011.62 1012.18 1012.68 1013.15
1010.12 1010.04 1010.00 1009.98 1009.97 1009.92 1009.82 1009.68 1009.49 1009.25 1008.98 1008.71 1008.44 1008.18 1007.93 1007.69 1007.45 1007.20 1006.92 1006.60 1006.24 1005.85 1005.43 1005.01 1004.63 1004.30 1004.06 1003.95 1003.98 1004.15 1004.48 1004.95 1005.54 1006.23 1007.00 1007.80 1008.61 1009.40 1010.15 1010.84 1011.48 1012.06 1012.58 1013.06
1009.80 1009.74 1009.73 1009.74 1009.75 1009.73 1009.66 1009.55 1009.38 1009.16 1008.92 1008.66 1008.40 1008.14 1007.90 1007.66 1007.41 1007.15 1006.85 1006.51 1006.12 1005.69 1005.23 1004.77 1004.34 1003.96 1003.68 1003.53 1003.52 1003.68 1004.00 1004.47 1005.08 1005.80 1006.59 1007.43 1008.26 1009.08 1009.85 1010.57 1011.22 1011.81 1012.35 1012.83
1009.50 1009.45 1009.45 1009.48 1009.50 1009.49 1009.45 1009.35 1009.20 1009.01 1008.79 1008.54 1008.29 1008.03 1007.79 1007.54 1007.29 1007.01 1006.70 1006.35 1005.95 1005.51 1005.04 1004.57 1004.13 1003.74 1003.45 1003.29 1003.27 1003.42 1003.73 1004.20 1004.80 1005.51 1006.29 1007.12 1007.95 1008.75 1009.52 1010.22 1010.87 1011.46 1011.98 1012.47
1009.25 1009.19 1009.19 1009.20 1009.22 1009.21 1009.17 1009.08 1008.93 1008.75 1008.52 1008.28 1008.02 1007.77 1007.51 1007.25 1006.99 1006.71 1006.41 1006.06 1005.68 1005.27 1004.83 1004.39 1003.98 1003.63 1003.37 1003.23 1003.23 1003.38 1003.68 1004.13 1004.71 1005.38 1006.12 1006.90 1007.68 1008.44 1009.16 1009.83 1010.45 1011.00 1011.51 1011.98
1009.08 1009.00 1008.97 1008.95 1008.94 1008.91 1008.84 1008.72 1008.56 1008.35 1008.10 1007.83 1007.56 1007.28 1007.00 1006.73 1006.46 1006.19 1005.90 1005.59 1005.26 1004.90 1004.54 1004.19 1003.86 1003.59 1003.40 1003.32 1003.36 1003.53 1003.83 1004.25 1004.79 1005.40 1006.07 1006.77 1007.48 1008.16 1008.81 1009.42 1009.98 1010.49 1010.96 1011.40
1009.03 1008.92 1008.84 1008.78 1008.71 1008.62 1008.49 1008.32 1008.09 1007.82 1007.52 1007.20 1006.87 1006.54 1006.23 1005.93 1005.65 1005.39 1005.13 1004.88 1004.62 1004.36 1004.11 1003.88 1003.68 1003.53 1003.45 1003.46 1003.57 1003.77 1004.08 1004.49 1004.98 1005.53 1006.11 1006.72 1007.33 1007.92 1008.48 1009.01 1009.50 1009.95 1010.38 1010.79
1009.11 1008.97 1008.84 1008.71 1008.57 1008.40 1008.17 1007.90 1007.58 1007.21 1006.81 1006.39 1005.98 1005.58 1005.21 1004.87 1004.57 1004.32 1004.10 1003.91 1003.75 1003.61 1003.51 1003.42 1003.38 1003.38 1003.44 1003.56 1003.75 1004.02 1004.35 1004.74 1005.19 1005.68 1006.18 1006.70 1007.21 1007.70 1008.17 1008.62 1009.04 1009.45 1009.83 1010.21
1009.30 1009.13 1008.95 1008.76 1008.52 1008.24 1007.90 1007.50 1007.05 1006.55 1006.02 1005.48 1004.95 1004.46 1004.01 1003.62 1003.30 1003.04 1002.86 1002.74 1002.68 1002.68 1002.72 1002.80 1002.92 1003.09 1003.29 1003.54 1003.84 1004.17 1004.53 1004.93 1005.36 1005.79 1006.23 1006.67 1007.09 1007.51 1007.90 1008.28 1008.65 1009.01 1009.38 1009.74
1009.57 1009.38 1009.15 1008.88 1008.56 1008.16 1007.69 1007.15 1006.54 1005.89 1005.22 1004.54 1003.89 1003.28 1002.75 1002.29 1001.94 1001.68 1001.53 1001.48 1001.51 1001.62 1001.81 1002.05 1002.33 1002.66 1003.01 1003.39 1003.78 1004.19 1004.60 1005.02 1005.43 1005.84 1006.23 1006.61 1006.98 1007.34 1007.69 1008.03 1008.37 1008.71 1009.07 1009.44
1009.87 1009.66 1009.40 1009.06 1008.64 1008.13 1007.53 1006.85 1006.11 1005.31 1004.50 1003.69 1002.91 1002.20 1001.58 1001.07 1000.68 1000.41 1000.28 1000.28 1000.39 1000.61 1000.91 1001.28 1001.71 1002.17 1002.65 1003.14 1003.63 1004.11 1004.57 1005.01 1005.43 1005.82 1006.19 1006.55 1006.89 1007.22 1007.55 1007.88 1008.22 1008.57 1008.95 1009.35
1010.14 1009.93 1009.63 1009.24 1008.74 1008.14 1007.44 1006.64 1005.78 1004.87 1003.94 1003.02 1002.16 1001.37 1000.68 1000.12 999.70 999.44 999.32 999.35 999.52 999.81 1000.20 1000.67 1001.20 1001.76 1002.34 1002.91 1003.47 1004.01 1004.51 1004.97 1005.41 1005.80 1006.17 1006.52 1006.86 1007.19 1007.53 1007.88 1008.24 1008.63 1009.04 1009.48
1010.35 1010.13 1009.81 1009.39 1008.84 1008.17 1007.40 1006.54 1005.61 1004.63 1003.64 1002.67 1001.76 1000.93 1000.21 999.63 999.20 998.94 998.83 998.89 999.09 999.42 999.86 1000.38 1000.97 1001.58 1002.21 1002.84 1003.44 1004.01 1004.53 1005.01 1005.46 1005.87 1006.24 1006.60 1006.95 1007.30 1007.66 1008.04 1008.44 1008.87 1009.32 1009.81
1010.47 1010.25 1009.93 1009.49 1008.92 1008.24 1007.45 1006.57 1005.63 1004.65 1003.66 1002.70 1001.80 1000.98 1000.28 999.72 999.30 999.05 998.96 999.02 999.24 999.58 1000.02 1000.56 1001.15 1001.77 1002.41 1003.04 1003.65 1004.22 1004.75 1005.23 1005.68 1006.09 1006.48 1006.85 1007.21 1007.59 1007.97 1008.38 1008.82 1009.28 1009.77 1010.29
1010.49 1010.28 1009.96 1009.53 1008.98 1008.32 1007.57 1006.74 1005.85 1004.94 1004.02 1003.13 1002.30 1001.55 1000.92 1000.40 1000.03 999.80 999.72 999.78 999.99 1000.31 1000.73 1001.23 1001.79 1002.38 1002.99 1003.59 1004.17 1004.71 1005.22 1005.69 1006.13 1006.53 1006.91 1007.29 1007.66 1008.05 1008.45 1008.88 1009.33 1009.82 1010.33 1010.86
Thickness
5768 5778 5782 5780 5781 5782 5771 5760 5749 5753 5756 5764 5772 5774 5774 5775 5773 5772 5770 5769 5768 5766 5764 5763 5762 5761 5761 5760 5758 5756 5753 5749 5747 5747 5745 5744 5742 5740 5739 5738 5737 5735 5733 5731
5760 5773 5775 5773 5778 5779 5775 5770 5764 5760 5757 5771 5773 5772 5769 5768 5768 5766 5765 5764 5763 5762 5760 5758 5756 5755 5754 5753 5752 5751 5747 5744 5743 5741 5739 5738 5736 5735 5733 5731 5730 5728 5726 5725
5737 5755 5759 5749 5765 5770 5767 5769 5764 5751 5757 5766 5763 5763 5763 5763 5763 5762 5761 5760 5758 5756 5756 5755 5753 5751 5748 5746 5746 5744 5742 5740 5738 5736 5734 5732 5732 5729 5726 5725 5723 5721 5719 5718
5726 5736 5724 5746 5773 5776 5767 5764 5767 5763 5762 5764 5763 5762 5763 5762 5759 5756 5756 5755 5754 5753 5751 5750 5749 5747 5744 5741 5738 5736 5735 5734 5733 5730 5728 5726 5724 5722 5720 5719 5717 5714 5712 5711
5713 5713 5723 5748 5763 5764 5753 5747 5760 5757 5756 5756 5757 5753 5750 5756 5756 5751 5751 5750 5750 5749 5748 5746 5743 5741 5738 5734 5731 5729 5728 5727 5727 5725 5721 5719 5717 5714 5713 5711 5709 5707 5705 5703
5711 5709 5707 5731 5758 5767 5754 5730 5751 5753 5748 5748 5746 5728 5733 5747 5748 5745 5745 5745 5744 5743 5741 5737 5736 5734 5730 5726 5724 5721 5720 5720 5719 5718 5715 5712 5710 5708 5706 5704 5701 5699 5697 5696
5705 5703 5712 5739 5755 5757 5724 5722 5744 5746 5744 5742 5736 5734 5738 5740 5739 5738 5738 5738 5737 5735 5731 5729 5728 5726 5721 5719 5717 5716 5714 5712 5711 5710 5708 5706 5704 5701 5699 5696 5694 5692 5690 5688
5697 5693 5703 5740 5744 5732 5727 5737 5740 5740 5739 5736 5734 5734 5733 5731 5731 5731 5729 5729 5729 5726 5723 5722 5722 5719 5714 5712 5712 5710 5707 5705 5703 5702 5701 5700 5696 5694 5691 5688 5685 5683 5681 5679
5703 5705 5724 5735 5737 5738 5737 5733 5733 5733 5733 5731 5728 5726 5725 5722 5722 5723 5722 5721 5721 5718 5715 5714 5714 5712 5708 5707 5706 5703 5700 5698 5696 5694 5693 5691 5688 5686 5684 5681 5678 5675 5673 5670
5704 5712 5722 5728 5731 5732 5735 5733 5732 5731 5730 5728 5723 5720 5718 5714 5712 5713 5714 5713 5712 5709 5706 5705 5705 5704 5702 5701 5699 5696 5693 5690 5688 5687 5685 5684 5681 5679 5676 5674 5671 5668 5665 5663
5699 5708 5714 5719 5723 5726 5727 5728 5727 5727 5726 5723 5719 5715 5711 5707 5705 5705 5705 5704 5703 5700 5698 5697 5697 5696 5695 5694 5691 5688 5686 5684 5682 5681 5678 5676 5674 5673 5671 5669 5666 5663 5660 5658
5693 5704 5704 5708 5717 5721 5719 5718 5719 5718 5716 5716 5715 5709 5706 5701 5699 5698 5697 5696 5694 5692 5690 5690 5689 5688 5687 5686 5683 5680 5677 5676 5675 5673 5671 5669 5666 5664 5663 5662 5660 5658 5656 5653
5707 5711 5709 5711 5713 5716 5714 5714 5714 5712 5710 5706 5705 5703 5699 5695 5693 5691 5690 5688 5686 5684 5683 5682 5681 5680 5679 5678 5676 5673 5670 5669 5667 5666 5664 5661 5659 5657 5654 5652 5652 5650 5648 5646
5709 5707 5702 5704 5705 5708 5708 5708 5708 5706 5704 5702 5698 5695 5691 5688 5686 5684 5682 5681 5679 5677 5676 5675 5673 5672 5672 5670 5668 5667 5665 5663 5661 5659 5657 5655 5652 5651 5648 5645 5642 5640 5638 5637
5702 5703 5699 5700 5700 5700 5700 5699 5697 5695 5694 5692 5691 5688 5684 5680 5677 5676 5675 5674 5672 5670 5668 5667 5665 5664 5664 5663 5661 5659 5657 5655 5653 5652 5650 5648 5645 5643 5641 5638 5635 5632 5629 5628
5695 5696 5696 5693 5691 5691 5691 5690 5687 5686 5685 5683 5681 5679 5677 5674 5671 5669 5668 5666 5663 5661 5660 5659 5658 5657 5657 5655 5654 5652 5651 5650 5648 5646 5644 5641 5638 5635 5633 5630 5627 5624 5621 5618
5685 5683 5684 5683 5683 5683 5683 5682 5681 5679 5677 5675 5674 5673 5670 5667 5663 5661 5660 5660 5658 5656 5655 5654 5652 5652 5651 5649 5647 5645 5644 5643 5642 5639 5636 5633 5630 5628 5626 5623 5620 5617 5614 5613
5687 5685 5683 5681 5678 5676 5676 5676 5675 5673 5670 5669 5668 5666 5662 5659 5655 5654 5653 5653 5651 5649 5648 5648 5648 5646 5645 5643 5642 5639 5637 5635 5633 5630 5628 5626 5623 5621 5619 5616 5614 5611 5608 5605
5682 5680 5679 5677 5675 5673 5670 5669 5668 5667 5665 5663 5660 5657 5655 5652 5650 5648 5647 5644 5642 5640 5641 5643 5643 5641 5639 5638 5637 5633 5631 5628 5626 5623 5621 5619 5616 5614 5611 5609 5607 5604 5601 5598
5675 5674 5672 5670 5670 5667 5665 5663 5662 5660 5658 5656 5653 5650 5647 5645 5643 5641 5639 5637 5636 5636 5637 5637 5636 5635 5633 5632 5631 5627 5624 5621 5619 5616 5613 5611 5609 5606 5604 5602 5600 5597 5595 5592
5666 5666 5665 5663 5661 5660 5659 5657 5655 5653 5651 5649 5646 5642 5641 5639 5638 5634 5631 5630 5631 5632 5631 5631 5629 5628 5627 5626 5624 5621 5618 5615 5612 5609 5607 5605 5602 5600 5598 5596 5594 5591 5588 5585
5659 5658 5657 5655 5653 5651 5651 5650 5648 5646 5644 5642 5640 5638 5635 5633 5631 5628 5627 5626 5626 5626 5625 5623 5622 5622 5621 5620 5617 5615 5612 5610 5607 5604 5602 5599 5597 5594 5591 5589 5586 5584 5581 5578
5651 5650 5648 5647 5645 5643 5642 5642 5641 5639 5637 5635 5633 5632 5630 5628 5625 5622 5620 5621 5621 5621 5619 5618 5617 5617 5615 5613 5611 5609 5606 5604 5601 5598 5596 5593 5591 5588 5585 5582 5579 5577 5573 5570
5644 5642 5641 5639 5638 5635 5633 5633 5633 5633 5631 5630 5628 5627 5625 5622 5619 5619 5618 5618 5617 5615 5614 5613 5612 5610 5608 5605 5603 5601 5598 5596 5593 5592 5589 5586 5584 5581 5578 5576 5573 5570 5567 5565
5637 5636 5634 5632 5629 5628 5627 5627 5626 5625 5624 5623 5622 5622 5621 5619 5616 5615 5614 5613 5611 5610 5608 5607 5605 5603 5600 5598 5596 5593 5591 5588 5586 5584 5581 5579 5577 5574 5572 5570 5567 5564 5561 5558
5629 5628 5627 5626 5625 5623 5622 5620 5618 5617 5616 5615 5614 5615 5614 5613 5612 5610 5608 5607 5605 5603 5601 5600 5598 5595 5592 5590 5588 5586 5583 5580 5579 5577 5574 5572 5570 5568 5565 5562 5560 5557 5554 5550
5622 5622 5620 5619 5619 5618 5617 5615 5613 5612 5611 5609 5608 5608 5608 5607 5606 5604 5602 5600 5598 5596 5594 5592 5590 5588 5586 5583 5581 5579 5576 5574 5572 5570 5568 5565 5564 5562 5558 5556 5553 5550 5546 5542